[[{"header":{"parameterUnit":"m.s-1","parameterCategory":1,"la1":30.2991,"la2":30.254,"lo1":-89.0895,"lo2":-89.0444,"dy":0.0017,"dx":0.0017,"nx":28,"ny":28,"refTime":"2025-03-12T03:00:00:Z","depth":0,"parameterNumber":2,"parameterNumberName":"U-component_of_WINDS"},"data":[0,0,0,0,0,0,0,0,0,0,0,0,0,0,0,0,0,0,0,0,0,0,0,0,0,0,0,0,0,0,0,0,0,0,0,0,0,0,0,0,0,0,0,0,0,0,0,0,0,0,0,0,0,0,0,0,0,0,-1.603,-1.6031,0,-1.6091,-1.6091,-1.6092,-1.6105,-1.6105,-1.6104,-1.6104,-1.6161,-1.6163,-1.6165,0,0,0,0,0,0,0,0,0,0,0,0,0,-1.5922,-1.5924,-1.603,-1.6031,-1.6032,-1.609,-1.6091,-1.6092,-1.6105,-1.6105,-1.6104,-1.6104,-1.616,-1.6163,-1.6165,0,0,0,0,0,0,0,0,0,0,0,0,0,-1.5975,-1.5925,-1.603,-1.6046,-1.6048,-1.609,-1.6091,-1.6092,-1.6105,-1.6105,-1.6104,-1.6104,-1.616,-1.6163,-1.6165,-1.6196,0,0,-1.6174,-1.6175,0,0,0,0,0,0,0,0,-1.5972,-1.5978,-1.6043,-1.6045,-1.6047,-1.609,-1.6074,-1.6127,-1.6106,-1.6083,-1.6104,-1.6103,-1.6138,-1.6142,-1.6155,-1.6198,-1.6201,-1.6174,-1.6176,-1.6177,-1.6178,0,0,0,0,0,0,0,-1.5968,-1.5976,-1.6054,-1.6043,-1.6046,-1.6048,-1.6055,-1.6084,-1.6113,-1.6085,-1.6086,-1.6094,-1.6139,-1.6152,-1.6156,-1.6202,-1.6174,-1.6177,-1.6179,-1.618,-1.6273,-1.6274,0,0,0,0,0,0,-1.5962,-1.5973,-1.6052,-1.6056,-1.6007,-1.6051,-1.6058,-1.6077,-1.6113,-1.6118,-1.6094,-1.6094,-1.6147,-1.6153,-1.6158,-1.6196,-1.6177,-1.618,-1.6182,-1.6272,-1.6273,-1.6274,0,0,0,0,0,0,-1.596,-1.5969,-1.605,-1.6015,-1.6025,-1.6053,-1.6074,-1.6078,-1.6092,-1.612,-1.6124,-1.6103,-1.6147,-1.6154,-1.6187,-1.6198,-1.6181,-1.6184,-1.6271,-1.6272,-1.6273,-1.6272,0,0,0,0,0,0,-1.5957,-1.5968,-1.5981,-1.6015,-1.6027,-1.6078,-1.6075,-1.608,-1.6097,-1.6097,-1.6129,-1.6133,-1.6147,-1.6182,-1.6189,-1.6202,-1.6186,-1.627,-1.6272,-1.6273,-1.6271,-1.6273,-1.6274,0,0,0,0,0,-1.5953,-1.5977,-1.5981,-1.5991,-1.6044,-1.6079,-1.6085,-1.6102,-1.6098,-1.611,-1.6128,-1.6132,-1.6196,-1.6185,-1.6194,-1.6207,-1.627,-1.6271,-1.6273,-1.627,-1.6272,-1.6274,0,0,0,0,0,0,-1.5942,-1.5982,-1.5987,-1.6023,-1.6048,-1.6081,-1.6097,-1.6104,-1.6129,-1.6128,-1.6146,-1.6153,-1.6184,-1.6199,-1.6186,-1.6238,-1.6232,-1.6236,-1.6227,-1.623,-1.6232,-1.6227,-1.6188,0,0,0,0,0,-1.5944,-1.597,-1.6003,-1.6032,-1.6044,-1.6069,-1.6084,-1.6095,-1.6121,-1.6131,-1.6151,-1.6174,-1.62,-1.6216,-1.624,-1.6273,-1.628,-1.6287,-1.6288,-1.629,-1.6292,-1.631,-1.6314,-1.6279,-1.6279,-1.6279,0,0,-1.5947,-1.5973,-1.5988,-1.603,-1.6051,-1.6077,-1.6077,-1.6104,-1.6123,-1.6134,-1.6166,-1.6182,-1.6209,-1.6242,-1.6258,-1.6255,-1.6303,-1.6292,-1.6293,-1.6294,-1.6313,-1.6316,-1.6319,-1.6281,-1.628,-1.628,0,0,-1.5968,-1.599,-1.6016,-1.6037,-1.6069,-1.6085,-1.6091,-1.6124,-1.6135,-1.6168,-1.6177,-1.6199,-1.6242,-1.6262,-1.6277,-1.6306,-1.631,-1.6313,-1.6321,-1.6339,-1.6342,-1.6344,-1.6354,-1.6357,-1.6315,-1.6315,-1.6315,0,-1.5968,-1.6009,-1.6029,-1.6056,-1.6074,-1.6087,-1.6114,-1.6132,-1.6169,-1.6181,-1.6178,-1.6233,-1.6252,-1.629,-1.6297,-1.6309,-1.6316,-1.6309,-1.634,-1.6343,-1.6345,-1.6355,-1.6359,-1.6316,-1.6316,-1.6316,-1.6316,0,-1.6008,-1.6036,-1.6053,-1.6091,-1.6111,-1.6138,-1.616,-1.6178,-1.6187,-1.6203,-1.6236,-1.626,-1.629,-1.63,-1.6309,-1.6339,-1.6336,-1.6337,-1.6331,-1.6349,-1.6358,-1.6362,-1.6316,-1.6316,-1.6316,-1.6316,0,0,-1.6021,-1.6071,-1.6077,-1.6094,-1.613,-1.6152,-1.6179,-1.621,-1.6224,-1.6249,-1.6272,-1.6309,-1.631,-1.6327,-1.6338,-1.6354,-1.6375,-1.6352,-1.6353,-1.6355,-1.6409,-1.6408,-1.6412,-1.6378,-1.6379,-1.638,-1.6406,0,-1.6046,-1.6096,-1.6115,-1.6156,-1.6182,-1.6195,-1.6218,-1.6242,-1.6258,-1.6282,-1.6299,-1.6324,-1.6324,-1.6335,-1.6351,-1.6369,-1.6385,-1.6367,-1.6398,-1.6399,-1.639,-1.6417,-1.6416,-1.644,-1.641,-1.6411,-1.6411,0,-1.6081,-1.6109,-1.6153,-1.6186,-1.6198,-1.6219,-1.6249,-1.6271,-1.6298,-1.6309,-1.6329,-1.6339,-1.6367,-1.636,-1.6398,-1.6385,-1.6399,-1.6409,-1.6411,-1.6414,-1.6406,-1.642,-1.6448,-1.6451,-1.6417,-1.6417,-1.6416,0,-1.6086,-1.6134,-1.6167,-1.6181,-1.6221,-1.6236,-1.6253,-1.628,-1.6297,-1.6323,-1.6334,-1.6362,-1.6377,-1.6398,-1.6416,-1.6409,-1.6451,-1.6446,-1.646,-1.6459,-1.6467,-1.6467,-1.6498,-1.6477,-1.6477,-1.6477,-1.6477,0,-1.6111,-1.6137,-1.617,-1.619,-1.622,-1.624,-1.6269,-1.6286,-1.631,-1.6333,-1.6345,-1.6366,-1.6388,-1.6411,-1.6424,-1.6453,-1.646,-1.6468,-1.6471,-1.6467,-1.6466,-1.6476,-1.6474,-1.6478,-1.6478,-1.6478,-1.6478,0,-1.6122,-1.6145,-1.6181,-1.6217,-1.6226,-1.6246,-1.6276,-1.6295,-1.6312,-1.6341,-1.6349,-1.6375,-1.6403,-1.6422,-1.6458,-1.6467,-1.6498,-1.6501,-1.6489,-1.649,-1.6503,-1.6501,-1.6541,-1.6547,-1.6523,-1.6523,-1.6523,0,-1.6136,-1.6157,-1.6195,-1.6212,-1.623,-1.6257,-1.6275,-1.6296,-1.6315,-1.6348,-1.6363,-1.6392,-1.6417,-1.6461,-1.6482,-1.6509,-1.6512,-1.6524,-1.6516,-1.6511,-1.6512,-1.651,-1.6512,-1.6525,-1.6525,-1.6526,-1.6526,0,-1.6159,-1.6169,-1.6197,-1.6228,-1.625,-1.6276,-1.6301,-1.6314,-1.6339,-1.6359,-1.6389,-1.6408,-1.6445,-1.6474,-1.6503,-1.6519,-1.6526,-1.6528,-1.6533,-1.6528,-1.652,-1.6524,-1.6492,-1.6527,-1.6527,-1.6527,-1.6527,-1.6527,-1.6171,-1.6191,-1.6221,-1.6251,-1.6272,-1.6296,-1.6316,-1.6336,-1.6362,-1.6395,-1.6406,-1.6436,-1.6463,-1.6503,-1.652,-1.6543,-1.6542,-1.6549,-1.655,-1.6552,-1.6551,-1.6517,-1.6549,-1.6549,-1.6549,-1.6549,-1.6549,0,-1.6194,-1.6215,-1.6242,-1.6278,-1.6302,-1.6309,-1.6337,-1.6356,-1.6383,-1.6408,-1.6432,-1.6466,-1.6494,-1.6518,-1.6547,-1.6561,-1.6565,-1.6568,-1.6566,-1.657,-1.6551,-1.6544,-1.6564,-1.6564,-1.6564,-1.6564,-1.6564,-1.6564,-1.6209,-1.6242,-1.6257,-1.63,-1.632,-1.6352,-1.6367,-1.6389,-1.6409,-1.6447,-1.6471,-1.6487,-1.6511,-1.6542,-1.6567,-1.6574,-1.6583,-1.6585,-1.6592,-1.6573,-1.6571,-1.657,-1.6563,-1.6587,-1.6587,-1.6609,-1.6609,-1.661]},{"header":{"parameterUnit":"m.s-1","parameterCategory":1,"la1":30.2991,"la2":30.254,"lo1":-89.0895,"lo2":-89.0444,"dy":0.0017,"dx":0.0017,"nx":28,"ny":28,"refTime":"2025-03-12T03:00:00:Z","depth":0,"parameterNumber":3,"parameterNumberName":"V-component_of_WINDS"},"data":[0,0,0,0,0,0,0,0,0,0,0,0,0,0,0,0,0,0,0,0,0,0,0,0,0,0,0,0,0,0,0,0,0,0,0,0,0,0,0,0,0,0,0,0,0,0,0,0,0,0,0,0,0,0,0,0,0,0,3.2675,3.2676,0,3.2773,3.2774,3.2775,3.2793,3.2792,3.2791,3.279,3.2886,3.2889,3.2892,0,0,0,0,0,0,0,0,0,0,0,0,0,3.25,3.2503,3.2675,3.2676,3.2677,3.2773,3.2774,3.2775,3.2793,3.2792,3.2791,3.279,3.2884,3.2888,3.2892,0,0,0,0,0,0,0,0,0,0,0,0,0,3.2585,3.2504,3.2675,3.2698,3.2701,3.2773,3.2774,3.2776,3.2793,3.2792,3.2791,3.279,3.2883,3.2888,3.2893,3.2947,0,0,3.2908,3.291,0,0,0,0,0,0,0,0,3.258,3.2591,3.2693,3.2696,3.27,3.277,3.2747,3.2833,3.2793,3.2758,3.279,3.2789,3.2848,3.2855,3.2876,3.2952,3.2956,3.2908,3.2911,3.2913,3.2915,0,0,0,0,0,0,0,3.2574,3.2587,3.2714,3.2695,3.2699,3.2702,3.2713,3.2764,3.2808,3.2761,3.2762,3.2774,3.2849,3.2871,3.2879,3.2957,3.2908,3.2913,3.2916,3.2917,3.3084,3.3085,0,0,0,0,0,0,3.2565,3.2582,3.2711,3.2717,3.2636,3.2706,3.2718,3.2748,3.2808,3.2816,3.2775,3.2774,3.2864,3.2873,3.2882,3.2951,3.2913,3.2918,3.2921,3.3083,3.3084,3.3086,0,0,0,0,0,0,3.2561,3.2576,3.2707,3.265,3.2667,3.2711,3.2744,3.2751,3.2773,3.2818,3.2826,3.279,3.2863,3.2875,3.2932,3.2954,3.292,3.2925,3.3081,3.3083,3.3085,3.3088,0,0,0,0,0,0,3.2556,3.2574,3.2596,3.265,3.267,3.2756,3.2746,3.2754,3.2782,3.2783,3.2834,3.2842,3.2863,3.2924,3.2937,3.2961,3.2928,3.3079,3.3082,3.3084,3.3086,3.309,3.3094,0,0,0,0,0,3.2549,3.2591,3.2597,3.2612,3.2698,3.2757,3.2768,3.2793,3.2784,3.2806,3.2835,3.284,3.295,3.293,3.2944,3.297,3.3078,3.3081,3.3084,3.3085,3.309,3.3094,0,0,0,0,0,0,3.2536,3.2599,3.2606,3.2667,3.2707,3.276,3.2788,3.2797,3.2839,3.2837,3.2865,3.2877,3.2932,3.2956,3.2933,3.3026,3.3013,3.3019,3.3009,3.3014,3.3017,3.301,3.2933,0,0,0,0,0,3.2541,3.2585,3.2636,3.2685,3.2705,3.2743,3.277,3.2786,3.2828,3.2844,3.2878,3.2917,3.296,3.2988,3.3031,3.309,3.3102,3.3115,3.3119,3.3121,3.3126,3.3161,3.3168,3.3097,3.3097,3.3097,0,0,3.255,3.259,3.2615,3.2684,3.2717,3.2761,3.2757,3.2803,3.2836,3.2851,3.2907,3.2933,3.2979,3.3038,3.3065,3.3059,3.3149,3.3126,3.3128,3.3131,3.3165,3.3172,3.3178,3.3099,3.3099,3.3098,0,0,3.2589,3.2624,3.2669,3.2703,3.2754,3.2779,3.279,3.2843,3.2861,3.2919,3.2931,3.297,3.3044,3.3077,3.3103,3.3158,3.3165,3.3171,3.319,3.3224,3.323,3.3235,3.3255,3.3262,3.3176,3.3176,3.3176,0,3.2594,3.2662,3.2691,3.2738,3.2768,3.2786,3.2832,3.2863,3.2924,3.2944,3.2938,3.3033,3.3064,3.3132,3.3146,3.3166,3.318,3.3165,3.3227,3.3232,3.3237,3.3257,3.3265,3.3177,3.3176,3.3176,3.3176,0,3.2666,3.2713,3.2744,3.2806,3.2839,3.2885,3.2921,3.2951,3.2965,3.2991,3.305,3.3089,3.3141,3.3158,3.3171,3.3228,3.3223,3.3221,3.3209,3.3244,3.3264,3.3271,3.3177,3.3177,3.3177,3.3177,0,0,3.2698,3.2778,3.2788,3.2818,3.2876,3.2913,3.296,3.3013,3.3039,3.3081,3.3122,3.3185,3.3185,3.3215,3.3232,3.3261,3.3304,3.3256,3.3258,3.3264,3.3371,3.3372,3.3381,3.3309,3.331,3.3312,3.3367,0,3.2745,3.2833,3.2861,3.2933,3.2978,3.2996,3.3038,3.3078,3.3104,3.3145,3.3173,3.3218,3.3214,3.3232,3.3262,3.3292,3.3326,3.3289,3.3346,3.3348,3.3335,3.3391,3.3392,3.3442,3.3375,3.3376,3.3377,0,3.2812,3.2858,3.2935,3.2991,3.3011,3.3048,3.31,3.3139,3.3185,3.3202,3.3237,3.3252,3.3302,3.3287,3.3356,3.333,3.3355,3.3374,3.3377,3.3383,3.3365,3.3399,3.3459,3.3467,3.3389,3.3388,3.3387,0,3.2829,3.291,3.2968,3.2992,3.3058,3.3084,3.3112,3.3157,3.3188,3.3232,3.3253,3.3302,3.3329,3.3366,3.3394,3.3381,3.3462,3.3448,3.3477,3.3476,3.3493,3.3491,3.3558,3.3508,3.3508,3.3508,3.3508,0,3.2879,3.2926,3.2977,3.3012,3.3066,3.3098,3.3149,3.3178,3.3219,3.3259,3.3277,3.3315,3.335,3.3392,3.3414,3.3469,3.3481,3.3495,3.3501,3.3494,3.3492,3.3511,3.3508,3.351,3.351,3.3509,3.3509,0,3.2907,3.2943,3.3007,3.3065,3.3081,3.3118,3.3167,3.3202,3.323,3.3281,3.3295,3.3338,3.3389,3.3421,3.3485,3.35,3.356,3.3564,3.3545,3.3548,3.3575,3.3572,3.3657,3.367,3.361,3.3611,3.3611,0,3.2936,3.2973,3.3037,3.3067,3.3096,3.3143,3.3176,3.3209,3.3242,3.3299,3.3327,3.3379,3.3423,3.3504,3.354,3.3589,3.3594,3.3621,3.3602,3.3595,3.3596,3.3594,3.3598,3.3623,3.3624,3.3624,3.3625,0,3.2985,3.3003,3.3049,3.3104,3.3143,3.3186,3.3229,3.3252,3.3293,3.3329,3.3383,3.3417,3.3484,3.3536,3.3589,3.3617,3.3628,3.3631,3.364,3.3634,3.3622,3.363,3.3554,3.3628,3.3628,3.3628,3.3628,3.3627,3.3016,3.305,3.3101,3.3154,3.319,3.3231,3.3268,3.3301,3.3347,3.3406,3.3423,3.3479,3.3526,3.3599,3.3628,3.3672,3.3668,3.3681,3.3685,3.3688,3.3689,3.3615,3.3681,3.3681,3.3681,3.3681,3.3681,0,3.3067,3.3101,3.3149,3.3211,3.3252,3.3261,3.331,3.3344,3.3394,3.3438,3.3482,3.3544,3.3595,3.3637,3.3689,3.3717,3.3723,3.3729,3.3728,3.3734,3.3688,3.3676,3.3724,3.3724,3.3724,3.3724,3.3724,3.3724,3.3098,3.3158,3.3181,3.3259,3.3293,3.335,3.3378,3.3416,3.3451,3.3521,3.3565,3.3592,3.3635,3.3691,3.3739,3.375,3.3768,3.3774,3.3786,3.3742,3.3737,3.3733,3.3721,3.3778,3.3778,3.3828,3.3829,3.3829]}]]